Home   Weather   Fort Worth   Past weeks

Flag for USA Past Weather in Fort Worth, Texas, USA — Yesterday and Last 2 Weeks

Now
50 °F

Overcast.


Feels Like: 45 °F
Forecast: 52 / 77 °F
Wind: 14 mph from South

Location: Meacham International Airport

Current Time: Dec 11, 2016 at 2:03:40 am

Latest Report: Dec 11, 2016 at 12:53 am


Visibility: 10 mi

Pressure: 30.08 "Hg

Humidity: 74%

Dew Point: 42 °F

Location of Fort WorthLocation

Past Weather in Fort Worth — Graph

°F

Fort Worth Temperature Yesterday

Maximum temperature yesterday: 49 °F (at 2:53 pm)
Minimum temperature yesterday: 35 °F (at 5:53 am)
Average temperature yesterday: 44 °F

High & Low Weather Summary for the Past Weeks

 TemperatureHumidityPressure
High73 °F (Nov 28, 1:53 pm)93% (Dec 5, 10:53 pm)30.70 "Hg (Dec 5, 10:53 pm)
Low26 °F (Dec 9, 2:53 am)19% (Nov 28, 12:53 pm)29.42 "Hg (Nov 28, 1:53 pm)
Average51 °F61%30.06 "Hg
* Reported Nov 26 12:53 am — Dec 11 12:53 am, Fort Worth, Weather by CustomWeather, © 2016

Note: Actual official high and low records may vary slightly from our data, if they occured in-between our weather recording intervals... More about our weather records

Advertising

Fort Worth Weather History for the Previous 24 Hours

Scroll right to see more
 ConditionsComfort  
Time TempWeatherWind HumidityBarometerVisibility
12:53 am
Sun, Dec 11
50 °FOvercast.14 mph74%30.08 "Hg10 mi
11:53 pm
Sat, Dec 10
49 °FOvercast.18 mph69%30.10 "Hg10 mi
10:53 pm49 °FOvercast.15 mph66%30.12 "Hg10 mi
9:53 pm49 °FMostly cloudy.14 mph64%30.13 "Hg10 mi
8:53 pm49 °FOvercast.16 mph61%30.16 "Hg10 mi
7:53 pm49 °FOvercast.17 mph59%30.17 "Hg10 mi
6:53 pm48 °FMostly cloudy.16 mph59%30.18 "Hg10 mi
5:53 pm48 °FOvercast.13 mph56%30.21 "Hg10 mi
4:53 pm49 °FOvercast.13 mph50%30.23 "Hg10 mi
3:53 pm49 °FOvercast.17 mph52%30.24 "Hg10 mi
2:53 pm49 °FMostly cloudy.17 mph55%30.25 "Hg10 mi
1:53 pm48 °FOvercast.16 mph52%30.28 "Hg7 mi
12:53 pm48 °FMostly cloudy.17 mph50%30.33 "Hg10 mi
11:53 am46 °FOvercast.17 mph46%30.38 "Hg10 mi
10:53 am43 °FMostly cloudy.14 mph49%30.44 "Hg10 mi
9:53 am42 °FOvercast.14 mph51%30.45 "Hg10 mi
8:53 am39 °FOvercast.13 mph57%30.45 "Hg10 mi
7:53 am38 °FOvercast.12 mph58%30.45 "Hg10 mi
6:53 am37 °FPassing clouds.8 mph60%30.45 "Hg10 mi
5:53 am35 °FPassing clouds.7 mph64%30.45 "Hg10 mi
4:53 am38 °FOvercast.8 mph55%30.45 "Hg10 mi
3:53 am38 °FOvercast.9 mph55%30.47 "Hg10 mi
2:53 am38 °FOvercast.7 mph55%30.48 "Hg10 mi
Weather by CustomWeather, © 2016

See weather overviewHow to use our weather pages